Location: Aniagüita
(10.0946°N, 66.9708°W)
Time: 15:25:46
(UTC+00:00)

OBJECT-B - Pass Details

Date: 30 June 2022
Orbit: 376 x 381 km, 96.9° (Epoch: 08 May)

Event Time Altitude Azimuth Distance (km) Brightness Sun altitude
Exits shadow 23:47:22 23° 91° (E) 813 1.7 -13.0°
Maximum altitude 23:47:44 24° 78° (ENE) 798 1.7 -13.1°
Drops below altitude 10° 23:50:04 10° 22° (NNE) 1,331 3.4 -13.6°
Sets 23:52:13 0° 7° (N) 2,183 4.7 -14.1°
